Torna al catalogo

ATLAS 5 CENTAUR DEB

AttivoHEO
NORAD 44659·DEBRIS·🇺🇸 United States

Lanciato Oct 17, 2018 da Cape Canaveral Space Force Station

Loading…

Prossimi Passaggi (prossime 24 ore)

TLE

In scadenzaSource: Space-Track

Epoca: Aug 27, 2026, 14:45 UTC

1 44659U 18079V   26239.61466514 -.00000144  00000-0  00000+0 0  9997
2 44659  13.5349  11.8249 4539563   2.7203 358.9554  1.90593694 50728

Traccia ATLAS 5 CENTAUR DEB in tempo reale con AllMySat

Download on the App Store